When you browse on this site, cookies collect data to enhance your experience and personalize the content and advertising you see.
Visit our Privacy Policy to learn more. By continuing to use the site, you agree to this use of cookies and data.
  • In Belgium
  • List of Countries
  • For 7 days
  • Water Temperature
  • Satellite Maps
  • Weather Map
  • Weather Widgets
  • user-avatar
    Login

    Hourly Weather Flemalle-Haute

    Today, 15 December, Saturday

    Time Temperature Precipitation Wind Pressure Humidity
    00:00 -1°C° 0 mm 1 mps 750 mmHg 71%
    01:00 -1°C° 0 mm 1 mps 750 mmHg 72%
    02:00 -1°C° 0 mm 1 mps 750 mmHg 73%
    03:00 -1°C° 0 mm 1 mps 750 mmHg 73%
    04:00 -3°C° 0 mm 2 mps 750 mmHg 75%
    05:00 -4°C° 0 mm 2 mps 750 mmHg 76%
    06:00 -4°C° 0 mm 2 mps 750 mmHg 79%
    07:00 -4°C° 0 mm 2 mps 750 mmHg 76%
    08:00 -4°C° 0 mm 3 mps 750 mmHg 73%
    09:00 -4°C° 0 mm 3 mps 749 mmHg 71%
    10:00 -2°C° 0 mm 3 mps 749 mmHg 65%
    11:00 -2°C° 0 mm 4 mps 749 mmHg 60%
    12:00 -1°C° 0 mm 4 mps 748 mmHg 56%
    13:00 -2°C° 0 mm 4 mps 748 mmHg 58%
    14:00 -2°C° 0 mm 4 mps 747 mmHg 59%
    15:00 -2°C° 0 mm 4 mps 747 mmHg 60%
    16:00 -4°C° 0 mm 5 mps 746 mmHg 61%
    17:00 -4°C° 0 mm 5 mps 745 mmHg 62%
    18:00 -4°C° 0 mm 6 mps 745 mmHg 64%
    19:00 -4°C° 0.1 mm 6 mps 744 mmHg 63%
    20:00 -3°C° 0.1 mm 6 mps 743 mmHg 63%
    21:00 -3°C° 0.1 mm 7 mps 742 mmHg 62%
    22:00 -3°C° 1.4 mm 6 mps 742 mmHg 70%
    23:00 -3°C° 1.4 mm 6 mps 741 mmHg 78%

    Tomorrow, 16 December, Sunday

    Time Temperature Precipitation Wind Pressure Humidity
    00:00 -3°C° 1.4 mm 6 mps 741 mmHg 86%
    01:00 -3°C° 0.6 mm 6 mps 740 mmHg 87%
    02:00 -1°C° 0.6 mm 5 mps 740 mmHg 88%
    03:00 -1°C° 0.6 mm 5 mps 739 mmHg 89%
    04:00 -1°C° 0.1 mm 4 mps 739 mmHg 91%
    05:00 -1°C° 0.1 mm 4 mps 739 mmHg 92%
    06:00 0°C° 0.1 mm 3 mps 739 mmHg 93%
    07:00 +1°C° 0 mm 3 mps 739 mmHg 94%
    08:00 +1°C° 0 mm 3 mps 740 mmHg 95%
    09:00 +1°C° 0 mm 3 mps 740 mmHg 96%
    10:00 +2°C° 0.1 mm 3 mps 740 mmHg 96%
    11:00 +2°C° 0.1 mm 3 mps 740 mmHg 96%
    12:00 +3°C° 0.1 mm 3 mps 740 mmHg 96%
    13:00 +3°C° 0 mm 3 mps 740 mmHg 96%
    14:00 +3°C° 0 mm 3 mps 741 mmHg 96%
    15:00 +2°C° 0 mm 3 mps 741 mmHg 96%
    16:00 +2°C° 0 mm 3 mps 741 mmHg 96%
    17:00 +2°C° 0 mm 3 mps 741 mmHg 96%
    18:00 +1°C° 0 mm 3 mps 741 mmHg 96%
    19:00 +1°C° 0 mm 3 mps 742 mmHg 96%
    20:00 +1°C° 0 mm 3 mps 742 mmHg 95%
    21:00 +1°C° 0 mm 3 mps 742 mmHg 95%
    22:00 +1°C° 0 mm 3 mps 742 mmHg 95%
    23:00 +1°C° 0 mm 3 mps 742 mmHg 95%

    Day after tomorrow, 17 December, Monday

    Time Temperature Precipitation Wind Pressure Humidity
    00:00 +1°C° 0 mm 3 mps 742 mmHg 95%
    01:00 +1°C° 0.5 mm 3 mps 742 mmHg 94%
    02:00 +2°C° 0.5 mm 3 mps 742 mmHg 94%
    03:00 +2°C° 0.5 mm 3 mps 742 mmHg 94%
    04:00 +2°C° 1 mm 3 mps 742 mmHg 94%
    05:00 +2°C° 1 mm 3 mps 742 mmHg 95%
    06:00 +3°C° 1 mm 2 mps 743 mmHg 95%
    07:00 +3°C° 0.2 mm 2 mps 743 mmHg 96%
    08:00 +3°C° 0.2 mm 2 mps 744 mmHg 96%
    09:00 +3°C° 0.2 mm 2 mps 745 mmHg 96%
    10:00 +3°C° 0 mm 2 mps 745 mmHg 96%
    11:00 +4°C° 0 mm 2 mps 746 mmHg 95%
    12:00 +3°C° 0 mm 3 mps 746 mmHg 95%
    13:00 +3°C° 0 mm 3 mps 747 mmHg 95%
    14:00 +3°C° 0 mm 3 mps 748 mmHg 96%
    15:00 +3°C° 0 mm 3 mps 748 mmHg 96%
    16:00 +3°C° 0 mm 3 mps 749 mmHg 96%
    17:00 +2°C° 0 mm 3 mps 749 mmHg 96%
    18:00 +2°C° 0 mm 3 mps 750 mmHg 96%
    19:00 +2°C° 0 mm 3 mps 750 mmHg 96%
    20:00 +2°C° 0 mm 3 mps 751 mmHg 95%
    21:00 +2°C° 0 mm 3 mps 751 mmHg 95%
    22:00 +2°C° 0 mm 3 mps 751 mmHg 95%
    23:00 +2°C° 0 mm 3 mps 751 mmHg 95%

    18 December, Tuesday

    Time Temperature Precipitation Wind Pressure Humidity
    00:00 +2°C° 0 mm 3 mps 751 mmHg 94%
    01:00 +1°C° 0 mm 4 mps 751 mmHg 94%
    02:00 +1°C° 0 mm 4 mps 751 mmHg 94%
    03:00 +1°C° 0 mm 4 mps 751 mmHg 94%
    04:00 +1°C° 0 mm 4 mps 751 mmHg 94%
    05:00 +1°C° 0 mm 4 mps 750 mmHg 94%
    06:00 +1°C° 0 mm 4 mps 750 mmHg 94%
    07:00 +1°C° 0 mm 4 mps 750 mmHg 93%
    08:00 +1°C° 0 mm 5 mps 750 mmHg 91%
    09:00 +2°C° 0 mm 5 mps 750 mmHg 90%
    10:00 +2°C° 0 mm 5 mps 749 mmHg 85%
    11:00 +3°C° 0 mm 5 mps 748 mmHg 80%
    12:00 +5°C° 0 mm 5 mps 748 mmHg 75%
    13:00 +5°C° 0 mm 5 mps 747 mmHg 74%
    14:00 +3°C° 0 mm 5 mps 746 mmHg 73%
    15:00 +3°C° 0 mm 5 mps 745 mmHg 72%
    16:00 +3°C° 0 mm 6 mps 745 mmHg 71%
    17:00 +2°C° 0 mm 6 mps 744 mmHg 70%
    18:00 +2°C° 0 mm 6 mps 744 mmHg 70%
    19:00 +2°C° 0 mm 6 mps 744 mmHg 70%
    20:00 +2°C° 0 mm 6 mps 743 mmHg 70%
    21:00 +2°C° 0 mm 6 mps 743 mmHg 70%
    22:00 +2°C° 0 mm 6 mps 743 mmHg 72%
    23:00 +3°C° 0 mm 6 mps 743 mmHg 74%

    19 December, Wednesday

    Time Temperature Precipitation Wind Pressure Humidity
    00:00 +3°C° 0 mm 6 mps 743 mmHg 76%
    01:00 +3°C° 0.3 mm 6 mps 743 mmHg 80%
    02:00 +3°C° 0.3 mm 6 mps 742 mmHg 83%
    03:00 +3°C° 0.3 mm 5 mps 742 mmHg 87%
    04:00 +3°C° 0.8 mm 5 mps 743 mmHg 88%
    05:00 +3°C° 0.8 mm 5 mps 743 mmHg 90%
    06:00 +4°C° 0.8 mm 4 mps 743 mmHg 92%
    07:00 +5°C° 0.2 mm 4 mps 743 mmHg 92%
    08:00 +5°C° 0.2 mm 4 mps 743 mmHg 93%
    09:00 +5°C° 0.2 mm 3 mps 744 mmHg 93%
    10:00 +5°C° 0.1 mm 3 mps 744 mmHg 91%
    11:00 +7°C° 0.1 mm 3 mps 744 mmHg 90%
    12:00 +7°C° 0.1 mm 3 mps 744 mmHg 89%
    13:00 +7°C° 0 mm 3 mps 744 mmHg 90%
    14:00 +7°C° 0 mm 3 mps 743 mmHg 90%
    15:00 +7°C° 0 mm 3 mps 743 mmHg 91%
    16:00 +6°C° 0 mm 2 mps 743 mmHg 92%
    17:00 +5°C° 0 mm 2 mps 743 mmHg 93%
    18:00 +5°C° 0 mm 2 mps 743 mmHg 94%
    19:00 +5°C° 0 mm 2 mps 744 mmHg 95%
    20:00 +5°C° 0 mm 2 mps 744 mmHg 95%
    21:00 +4°C° 0 mm 3 mps 744 mmHg 95%
    22:00 +4°C° 0 mm 3 mps 744 mmHg 95%
    23:00 +5°C° 0 mm 2 mps 744 mmHg 95%

    20 December, Thursday

    Time Temperature Precipitation Wind Pressure Humidity
    00:00 +5°C° 0 mm 2 mps 744 mmHg 95%
    01:00 +5°C° 0 mm 2 mps 744 mmHg 95%
    02:00 +4°C° 0 mm 2 mps 744 mmHg 96%
    03:00 +4°C° 0 mm 2 mps 744 mmHg 96%
    04:00 +4°C° 0 mm 2 mps 745 mmHg 96%
    05:00 +4°C° 0 mm 2 mps 745 mmHg 96%
    06:00 +4°C° 0 mm 2 mps 745 mmHg 96%
    07:00 +3°C° 0 mm 3 mps 746 mmHg 95%
    08:00 +3°C° 0 mm 3 mps 746 mmHg 94%
    09:00 +3°C° 0 mm 3 mps 746 mmHg 93%
    10:00 +3°C° 0 mm 4 mps 746 mmHg 91%
    11:00 +4°C° 0 mm 4 mps 747 mmHg 88%
    12:00 +5°C° 0 mm 4 mps 747 mmHg 85%
    13:00 +4°C° 0 mm 4 mps 747 mmHg 87%
    14:00 +4°C° 0 mm 4 mps 747 mmHg 88%
    15:00 +3°C° 0 mm 4 mps 747 mmHg 90%
    16:00 +3°C° 0 mm 4 mps 748 mmHg 90%
    17:00 +3°C° 0 mm 4 mps 748 mmHg 91%
    18:00 +3°C° 0 mm 4 mps 748 mmHg 91%
    19:00 +3°C° 0 mm 4 mps 748 mmHg 92%
    20:00 +3°C° 0 mm 4 mps 749 mmHg 92%
    21:00 +3°C° 0 mm 4 mps 749 mmHg 92%
    22:00 +3°C° 0 mm 4 mps 749 mmHg 92%
    23:00 +2°C° 0 mm 5 mps 749 mmHg 92%
    Show more